STARLINK-32624, 61926

Orbit data source: Space-Track

STARLINK-32624, 61926 is a payload satellite owned by SpaceX/Seattle (US) in LEO that was launched on Mon, 11 Nov 2024 UTC via an FALCON 9 launch vehicle from the Air Force Eastern Test Range (AFETR). Payload-class satellites include a variety of spacecraft equipped with specific instruments for various scientific and technological missions. These include communications satellites like Starlink; space stations such as the ISS; scientific satellites like the Hubble; Earth observation satellites from companies like Planet Labs, Umbra, and HawkEye 360; GPS; miniature CubeSats for education and research; and military/defense satellites.

Loading next visibility...
Identifier
61926, 2024-207Q
Orbit
LEO
Last TLE update
6 hours ago
Origin
Manufacturer
SpaceX/Seattle
Mission
Operational Commercial Communications
Bus & Motor
STARLINK V2M, Unknown motor
Mass
730 kg wet, ~700 kg dry
Launch date (UTC)
2024-11-11 (8 months ago)
Launch vehicle
FALCON 9
Launch site
Air Force Eastern Test Range (AFETR)
Object type
Payload
Rocket body
Debris
Shape & HBR
Box + 2 Pan, 29 m
Radar Cross Section
36.964 m², Large (>1 m²)

Expand to show TLE details & history

TLE from 6 hours ago
0 STARLINK-32624
1 61926U 24207Q   25186.56752292  .00010522  00000-0  39125-3 0  9992
2 61926  43.0002 236.8649 0001445 276.9746  83.0941 15.27587522 36938
Epoch: 2025-07-05T13:37Z
TLE epoch observation values (Epoch: 2025-07-05T13:37:13.98Z)
Latitude
-0.00003°
Longitude
108.75291°
Altitude
482.683 km
Speed
7.626 km/s
True Right ascension
15h 47m 27s
True Declination
0° 00' 00"
Sunlit
Object was in full shadow at epoch
Visualization orbit readout
Latitude
-43.14418°
Longitude
15.56946°
Altitude
495.377 km
Speed
7.618 km/s
Apparent Right ascension
14h 20m 18s
Apparent Declination
-72° 29' 42"
Sunlit
Object is in daylight
Visualization observer readout
Local Sidereal Time
07:25:39
Azimuth
156.919° SSE
Elevation
-41.793°
Doppler factor
1
Orbital elements
Apogee altitude
485.963 km
Perigee altitude
483.98 km
Semi-major axis
6,863.109 km
Eccentricity
0.00014
Inclination
43.0002°
RAAN
236.8649°
Arg. of periapsis
276.9746°
True anomaly
Unknown
Mean anomaly
83.0941°
Eccentric anomaly
Unknown
Mean motion
3.81735 °/min
Orbital period
94.31 mins
BSTAR
0.00039125
Loading maneuver chart data...
Loading SW <> Apogee altitude chart data...
Loading historical data...
Loading historical data...
Loading historical data...
Loading historical data...
Loading historical data...
Loading historical data...
Loading historical data...

STARLINK-32624 Visibility forecast

Observer location: undefined°, undefined°

Span
Click to sort rows by Start time (UTC) header in descending order
Start Az.
Max El. time (UTC)
Max El. Az.
Max El.
End time (UTC)
End Az.
6 mins2025-07-06 07:06:57.239Z229.214° WSW2025-07-06 07:09:57.239Z120.286° SE38.06°2025-07-06 07:12:57.239Z76.921° E
6 mins2025-07-06 08:45:57.239Z277.835° WNW2025-07-06 08:47:57.239Z317.497° NNW37.857°2025-07-06 08:51:57.239Z71.434° E
5 mins2025-07-06 10:25:57.239Z299.35° NW2025-07-06 10:27:57.239Z35.367° NE40.506°2025-07-06 10:30:57.239Z90.639° ESE
5 mins2025-07-06 12:04:57.239Z264.867° W2025-07-06 12:06:57.239Z187.885° SSW34.916°2025-07-06 12:09:57.239Z134.496° SE
|